Regional Weather Roundup
Issued by NWS Sioux Falls, SD

Home | Current Version | Previous Version | Text Only | Print | Product List | Glossary Off
Versions: 1 2 3 4 5 6 7 8 9 10 11 12 13 14 15 16 17 18 19 20 21 22 23 24 25 26 27 28 29 30 31 32 33 34 35 36 37 38 39 40 41 42 43 44 45 46 47 48 49 50

000
ASUS43 KFSD 172002
RWRFSD

WEATHER ROUNDUP FOR SE SOUTH DAKOTA/SW MINNESOTA/NW IOWA
NATIONAL WEATHER SERVICE SIOUX FALLS SD
200 PM CST WED DEC 17 2014

NOTE: "FAIR" INDICATES FEW OR NO CLOUDS BELOW 12,000 FEET WITH NO
SIGNIFICANT WEATHER AND OR OBSTRUCTIONS TO VISIBILITY.


SDZ038>040-050-052>070-172100-
SOUTHEAST SOUTH DAKOTA

CITY           SKY/WX    TMP DP  RH WIND       PRES   REMARKS
CHAMBERLAIN    NOT AVBL
HURON          SUNNY     14  10  84 E3        30.27F
MADISON        FAIR      16  16 100 CALM      30.24F
MITCHELL         N/A     16  13  88 MISG      30.28F
SIOUX FALLS    PTSUNNY   18  10  71 NE5       30.26F WCI  11
YANKTON        SUNNY     18  10  73 CALM      30.29S
$$

MNZ071-072-080-081-089-090-097-098-172100-
SOUTHWEST MINNESOTA

CITY           SKY/WX    TMP DP  RH WIND       PRES   REMARKS
FAIRMONT       SUNNY     19  10  68 N7        30.27F WCI  10
JACKSON        SUNNY     21  14  73 NW7       30.25F WCI  13
LUVERNE        SUNNY     21  14  73 NW3       30.27F
MARSHALL       SUNNY     12   7  79 N5        30.30S WCI   4
MONTEVIDEO     SUNNY     19  18  93 CALM      30.31F
REDWOOD FALLS  SUNNY     19  11  70 NW9       30.29F WCI   8
TRACY          SUNNY     15  11  83 NW3       30.28F
WINDOM         SUNNY     18  12  79 NW6       30.26F WCI   9
WORTHINGTON    SUNNY     18  12  79 N5        30.25F WCI  11
$$

IAZ001>003-012>014-020>022-031-032-NEZ013-014-SDZ071-172100-
NORTHWEST IOWA

CITY           SKY/WX    TMP DP  RH WIND       PRES   REMARKS
DENISON        SUNNY     25  16  68 N5        30.25F WCI  19
ESTHERVILLE    SUNNY     20  14  77 N8        30.25F WCI  10
SIOUX CITY     SUNNY     25  15  66 SW6       30.29F WCI  18
SPENCER        SUNNY     25  14  63 N6        30.27F WCI  18
$$

ABBREVIATIONS USED IN REMARKS
   TC - TEMPERATURE IN CELSIUS
  WCI - WIND CHILL INDEX
   HX - HEAT INDEX
  VSB - VISIBILITY




USA.gov is the U.S. government's official web portal to all federal, state and local government web resources and services.